Location: Bouillancy
(49.1149°N, 2.9308°E)
Time: 08:14:48
(UTC+00:00)

MetOp-B - Pass Details

Date: 30 September 2020
Orbit: 819 x 821 km, 98.7° (Epoch: 30 October)

Event Time Altitude Azimuth Distance (km) Brightness Sun altitude
Exits shadow 20:35:16 60° 352° (N) 935 4.5 -29.9°
Drops below altitude 10° 20:39:38 10° 346° (NNW) 2,427 7.1 -30.5°
Sets 20:42:00 0° 346° (NNW) 3,364 8.0 -30.8°
